Terminal Aerodrome Forecast
Issued by NWS

Home | Current Version | Previous Version | Text Only | Print | Product List | Glossary On
Versions: 1 2 3 4 5 6 7 8 9 10 11 12 13 14 15 16 17 18 19 20 21 22 23 24 25
000
FTUS44 KBMX 020142 AAB
TAFEET
TAF AMD
KEET 020142Z 0202/0224 20005KT 1SM TSRA SCT040CB OVC150
     FM020300 23005KT P6SM BKN200
     FM021800 22004KT P6SM VCTS SCT050CB PROB30 0218/0222 P6SM TS
      BKN050CB=

USA.gov is the U.S. government's official web portal to all federal, state and local government web resources and services.